FENGYUN 1C DEB, 32096

Orbit data source: Space-Track

FENGYUN 1C DEB, 32096 is space debris in SSO originally from a launch on Mon, 10 May 1999 UTC launched from the Taiyaun Space Center, China (TSC). Fengyun 1C debris stems from the Chinese weather satellite Fengyun-1C, which was intentionally destroyed by a Chinese anti-satellite missile in 2007. This event dramatically increased the amount of space debris, with thousands of trackable fragments posing hazards to satellites and human spaceflight. The Fengyun 1C debris cloud has become a focal point in discussions about space sustainability and the need for international regulations to prevent the creation of new debris.

Loading next visibility...
Identifier
32096, 1999-025CQN
Orbit
SSO
Country
Flag of CNCN / PRC
Related business
Manufacturer
Unknown
Mission
Spacecraft
Bus & Motor
Unknown
Mass
Unknown
Launch date (UTC)
1999-05-10 (27 years ago)
Launch vehicle
Unknown
Launch site
Taiyaun Space Center, China (TSC)
Object type
Payload
Rocket body
Debris
Shape & HBR
Unknown shape, 0.1 m
Radar Cross Section
Small (<0.1 m²)

Expand to show TLE details & history
Last TLE update: 5 days ago

TLE from 5 days ago
0 FENGYUN 1C DEB
1 32096U 99025CQN 26203.54538619  .00000629  00000-0  50099-3 0  9992
2 32096  99.0536 232.0655 0134099 258.7390  99.8673 13.90789154959447
Epoch: 2026-07-22T13:05Z
TLE epoch observation values (Epoch: 2026-07-22T13:05:21.366Z)
Latitude
-0.0001°
Longitude
95.4273°
Altitude
946.789 km
Speed
7.369 km/s
True Right ascension
15h 28m 15s
True Declination
0° 00' 00"
Sunlit
Object was in daylight at epoch
Visualization orbit readout
Latitude
Unknown
Longitude
Unknown
Altitude
Unknown
Speed
Unknown
Apparent Right ascension
Unknown
Apparent Declination
Unknown
Sunlit
N/A
Visualization observer readout
Local Sidereal Time
22:26:09
Azimuth
Unknown
Elevation
Unknown
Doppler factor
Unknown
Orbital elements
Apogee altitude
1,020.989 km
Perigee altitude
825.172 km
Semi-major axis
7,301.217 km
Eccentricity
0.01341
Inclination
99.0536°
RAAN
232.0655°
Arg. of periapsis
258.739°
True anomaly
101.37672°
Mean anomaly
99.8673°
Eccentric anomaly
100.62246°
Mean motion
3.47897 °/min
Orbital period
103.48 mins
BSTAR
0.00050099
Loading maneuver chart data...
Computing Atmospheric mass density...

Documentation

Showing up to 5 results
|